[[{"header":{"parameterUnit":"m.s-1","parameterCategory":1,"la1":30.2991,"la2":30.254,"lo1":-89.0895,"lo2":-89.0444,"dy":0.0017,"dx":0.0017,"nx":28,"ny":28,"refTime":"2025-04-08T21:00:00:Z","depth":0,"parameterNumber":2,"parameterNumberName":"U-component_of_WINDS"},"data":[0,0,0,0,0,0,0,0,0,0,0,0,0,0,0,0,0,0,0,0,0,0,0,0,0,0,0,0,0,0,0,0,0,0,0,0,0,0,0,0,0,0,0,0,0,0,0,0,0,0,0,0,0,0,0,0,0,0,3.9152,3.9153,0,3.9198,3.9198,3.9199,3.9095,3.9092,3.9088,3.9085,3.9132,3.9137,3.9141,0,0,0,0,0,0,0,0,0,0,0,0,0,3.8974,3.8978,3.9152,3.9153,3.9153,3.9197,3.9198,3.9199,3.9096,3.9092,3.9088,3.9084,3.9131,3.9136,3.9141,0,0,0,0,0,0,0,0,0,0,0,0,0,3.9039,3.8979,3.9152,3.9107,3.9103,3.9197,3.9198,3.9199,3.9097,3.9092,3.9087,3.9082,3.9129,3.9136,3.9142,3.9282,0,0,3.9162,3.9165,0,0,0,0,0,0,0,0,3.9035,3.9045,3.9113,3.911,3.9106,3.9135,3.9152,3.9227,3.9098,3.9099,3.9085,3.9079,3.9137,3.9143,3.9162,3.9284,3.9286,3.9162,3.9166,3.9169,3.9171,0,0,0,0,0,0,0,3.9031,3.9043,3.917,3.9114,3.911,3.9084,3.9088,3.9166,3.9146,3.9099,3.9091,3.9098,3.9135,3.9156,3.9163,3.9287,3.9162,3.9168,3.9172,3.9175,3.9521,3.9526,0,0,0,0,0,0,3.9032,3.904,3.9169,3.9171,3.9058,3.9091,3.9095,3.9131,3.9145,3.9142,3.9102,3.9093,3.9148,3.9155,3.9164,3.9326,3.9169,3.9175,3.9179,3.9516,3.9522,3.9528,0,0,0,0,0,0,3.9029,3.9045,3.9167,3.9104,3.9117,3.91,3.9141,3.9135,3.9156,3.9147,3.9143,3.9128,3.9144,3.9155,3.9252,3.9326,3.9178,3.9184,3.951,3.9518,3.9525,3.9653,0,0,0,0,0,0,3.9024,3.9044,3.9098,3.9106,3.9121,3.9255,3.9145,3.9139,3.9168,3.9156,3.9171,3.9168,3.9141,3.9243,3.9259,3.9333,3.9189,3.9503,3.9513,3.9523,3.9642,3.9664,3.9683,0,0,0,0,0,3.9018,3.9133,3.9101,3.9117,3.9188,3.926,3.9268,3.9235,3.9174,3.9227,3.9221,3.9168,3.9316,3.9254,3.9271,3.9348,3.9498,3.951,3.9522,3.9633,3.966,3.9683,0,0,0,0,0,0,3.9135,3.9133,3.9098,3.9218,3.924,3.9242,3.9308,3.9265,3.9305,3.9292,3.9249,3.9253,3.9358,3.9363,3.9294,3.9482,3.9397,3.9412,3.9475,3.9501,3.9521,3.9517,3.9195,0,0,0,0,0,3.9175,3.9234,3.9229,3.9335,3.9348,3.9327,3.9357,3.9329,3.9349,3.9358,3.9359,3.9381,3.9432,3.9467,3.9513,3.9642,3.9642,3.9703,3.9724,3.9741,3.9755,3.982,3.9846,3.9567,3.9567,3.9567,0,0,3.9257,3.9263,3.9304,3.9359,3.9372,3.9433,3.9335,3.9405,3.9449,3.9369,3.946,3.9462,3.9483,3.9596,3.9646,3.9603,3.9832,3.9756,3.9769,3.9774,3.9835,3.9861,3.9885,3.9575,3.9574,3.9573,0,0,3.9439,3.9451,3.9539,3.9554,3.9575,3.956,3.9581,3.9589,3.9587,3.9678,3.9618,3.967,3.976,3.9776,3.9797,3.9982,3.9934,3.9999,4.0106,4.0171,4.0192,4.0212,4.0276,4.0299,4.0013,4.0013,4.0013,0,3.9539,3.9629,3.9591,3.9663,3.9688,3.9617,3.9706,3.9722,3.9758,3.9777,3.9728,3.9837,3.9847,3.9961,4.0006,4.0026,4.0047,3.9997,4.0192,4.0211,4.0229,4.0289,4.0314,4.0021,4.002,4.0019,4.0018,0,3.975,3.9814,3.9883,3.9917,3.995,4.0031,4.0003,4.0041,4.001,3.9999,4.0091,4.01,4.0146,4.0171,4.0142,4.0281,4.0253,4.02,4.0113,4.0264,4.0319,4.0343,4.0031,4.0029,4.0026,4.0025,0,0,4.0009,4.0018,4.0044,4.0058,4.0074,4.0122,4.0199,4.0243,4.0275,4.0301,4.0363,4.0439,4.0389,4.0412,4.0384,4.0441,4.0584,4.0379,4.0379,4.0415,4.0735,4.0774,4.0802,4.0552,4.0556,4.056,4.0732,0,4.0187,4.0317,4.0283,4.0413,4.0469,4.0401,4.0467,4.0484,4.0476,4.0522,4.0512,4.0566,4.0497,4.051,4.0563,4.0555,4.0647,4.0542,4.0608,4.061,4.0603,4.0831,4.0874,4.1036,4.0754,4.0758,4.076,0,4.0412,4.0445,4.0581,4.0585,4.0607,4.0668,4.0703,4.0749,4.0766,4.0755,4.078,4.074,4.0813,4.0727,4.0827,4.0756,4.0781,4.0781,4.0786,4.079,4.0694,4.084,4.1088,4.1112,4.0795,4.0792,4.079,0,4.0585,4.0663,4.0753,4.0767,4.0775,4.0819,4.0824,4.0836,4.0863,4.0895,4.0912,4.0952,4.0974,4.1006,4.0977,4.0917,4.1081,4.0992,4.1073,4.1074,4.111,4.1108,4.1364,4.1129,4.1128,4.1128,4.1127,0,4.0787,4.0872,4.083,4.0886,4.0978,4.0937,4.103,4.1027,4.1038,4.1091,4.1035,4.1086,4.1044,4.1091,4.1069,4.1154,4.1165,4.1158,4.1151,4.1162,4.1163,4.1177,4.1165,4.1134,4.1133,4.1132,4.1131,0,4.0995,4.0971,4.1064,4.1063,4.1065,4.1133,4.1131,4.1182,4.1168,4.1235,4.1249,4.1228,4.128,4.1254,4.1309,4.1293,4.1403,4.1381,4.1397,4.1391,4.1472,4.1464,4.1745,4.1779,4.1523,4.1526,4.1528,0,4.1125,4.1188,4.1193,4.1224,4.1232,4.1284,4.131,4.1272,4.1303,4.1325,4.1372,4.1419,4.1455,4.1541,4.153,4.1571,4.1549,4.1644,4.1555,4.1563,4.1548,4.1544,4.1549,4.1662,4.1665,4.1668,4.167,0,4.1358,4.1342,4.1383,4.142,4.1453,4.148,4.1503,4.1531,4.1493,4.153,4.1582,4.1609,4.1663,4.171,4.1744,4.1749,4.1703,4.1698,4.1718,4.173,4.1736,4.1732,4.1444,4.1692,4.1689,4.1688,4.1687,4.1686,4.153,4.1582,4.1592,4.1639,4.1651,4.1673,4.1719,4.171,4.1753,4.1793,4.1767,4.1828,4.184,4.1882,4.1892,4.1938,4.19,4.193,4.1938,4.1946,4.1956,4.1729,4.1944,4.1944,4.1943,4.1943,4.1942,0,4.1758,4.1761,4.1804,4.1836,4.1872,4.1824,4.1846,4.1879,4.1933,4.1948,4.1983,4.2041,4.2085,4.2077,4.2117,4.2155,4.2135,4.2167,4.2163,4.2164,4.1988,4.1966,4.2182,4.2182,4.2182,4.2182,4.2182,4.2182,4.1882,4.1966,4.1951,4.204,4.2041,4.2099,4.2115,4.2134,4.2145,4.2212,4.2248,4.2242,4.2247,4.2286,4.2324,4.232,4.2337,4.2376,4.2365,4.2201,4.2177,4.2154,4.2133,4.2381,4.2381,4.2536,4.2538,4.2539]},{"header":{"parameterUnit":"m.s-1","parameterCategory":1,"la1":30.2991,"la2":30.254,"lo1":-89.0895,"lo2":-89.0444,"dy":0.0017,"dx":0.0017,"nx":28,"ny":28,"refTime":"2025-04-08T21:00:00:Z","depth":0,"parameterNumber":3,"parameterNumberName":"V-component_of_WINDS"},"data":[0,0,0,0,0,0,0,0,0,0,0,0,0,0,0,0,0,0,0,0,0,0,0,0,0,0,0,0,0,0,0,0,0,0,0,0,0,0,0,0,0,0,0,0,0,0,0,0,0,0,0,0,0,0,0,0,0,0,-0.2042,-0.204,0,-0.1828,-0.1825,-0.1823,-0.1713,-0.1713,-0.1712,-0.1712,-0.1487,-0.1482,-0.1476,0,0,0,0,0,0,0,0,0,0,0,0,0,-0.2352,-0.2347,-0.2042,-0.204,-0.2037,-0.1828,-0.1825,-0.1822,-0.1713,-0.1713,-0.1712,-0.1712,-0.1489,-0.1482,-0.1475,0,0,0,0,0,0,0,0,0,0,0,0,0,-0.2185,-0.2345,-0.2043,-0.1957,-0.1947,-0.1829,-0.1825,-0.1821,-0.1713,-0.1713,-0.1712,-0.1712,-0.1492,-0.1483,-0.1474,-0.1422,0,0,-0.1447,-0.1443,0,0,0,0,0,0,0,0,-0.2195,-0.2174,-0.1972,-0.1963,-0.1952,-0.1797,-0.1852,-0.1687,-0.1713,-0.1802,-0.1712,-0.1712,-0.159,-0.1573,-0.1533,-0.1412,-0.1402,-0.1446,-0.1441,-0.1437,-0.1435,0,0,0,0,0,0,0,-0.2207,-0.2183,-0.1957,-0.197,-0.1957,-0.1928,-0.1904,-0.182,-0.1699,-0.1794,-0.1785,-0.1762,-0.1584,-0.1542,-0.1527,-0.1399,-0.1447,-0.1439,-0.1433,-0.143,-0.1224,-0.1224,0,0,0,0,0,0,-0.2233,-0.2193,-0.1964,-0.1951,-0.2076,-0.1923,-0.1896,-0.1847,-0.17,-0.1677,-0.1762,-0.1758,-0.1557,-0.1537,-0.1519,-0.1448,-0.1437,-0.1429,-0.1424,-0.1224,-0.1224,-0.1224,0,0,0,0,0,0,-0.224,-0.2213,-0.1972,-0.2069,-0.2037,-0.1917,-0.1863,-0.1842,-0.18,-0.1676,-0.1653,-0.1741,-0.1556,-0.1531,-0.1447,-0.1439,-0.1425,-0.1417,-0.1224,-0.1224,-0.1224,-0.1307,0,0,0,0,0,0,-0.2249,-0.2217,-0.2197,-0.207,-0.2032,-0.1907,-0.1862,-0.1838,-0.1785,-0.1777,-0.165,-0.1629,-0.1554,-0.1461,-0.1439,-0.1426,-0.141,-0.1224,-0.1224,-0.1224,-0.1304,-0.1309,-0.1314,0,0,0,0,0,-0.2261,-0.2228,-0.2196,-0.2169,-0.2005,-0.1906,-0.1884,-0.1801,-0.1785,-0.1764,-0.1684,-0.1633,-0.1444,-0.1454,-0.1427,-0.1412,-0.1224,-0.1224,-0.1224,-0.1302,-0.1308,-0.1314,0,0,0,0,0,0,-0.2354,-0.2209,-0.2173,-0.2098,-0.2016,-0.1888,-0.1858,-0.181,-0.1728,-0.1724,-0.1622,-0.1594,-0.152,-0.1457,-0.1471,-0.1354,-0.1329,-0.1323,-0.1397,-0.1402,-0.1407,-0.1423,-0.1403,0,0,0,0,0,-0.2367,-0.2301,-0.2177,-0.2123,-0.2083,-0.1979,-0.1932,-0.1875,-0.1784,-0.1748,-0.1662,-0.1575,-0.1496,-0.1446,-0.1366,-0.1295,-0.1265,-0.1271,-0.1276,-0.1281,-0.1277,-0.1234,-0.1236,-0.1222,-0.1222,-0.1222,0,0,-0.2391,-0.2304,-0.2268,-0.2139,-0.2069,-0.2001,-0.195,-0.188,-0.1828,-0.1737,-0.1653,-0.1588,-0.1483,-0.1406,-0.1368,-0.1352,-0.1274,-0.128,-0.1285,-0.1278,-0.1234,-0.1236,-0.1237,-0.1222,-0.1222,-0.1222,0,0,-0.24,-0.2328,-0.2275,-0.2206,-0.21,-0.2031,-0.2018,-0.1898,-0.1851,-0.1766,-0.1696,-0.1632,-0.1498,-0.1427,-0.1373,-0.1356,-0.1306,-0.1333,-0.1358,-0.1317,-0.1318,-0.1319,-0.1313,-0.1312,-0.1329,-0.133,-0.133,0,-0.2443,-0.234,-0.2254,-0.2188,-0.2134,-0.205,-0.1995,-0.1931,-0.1804,-0.1768,-0.1752,-0.1582,-0.1506,-0.1411,-0.1407,-0.1366,-0.1348,-0.1347,-0.1326,-0.1325,-0.1324,-0.1317,-0.1315,-0.1334,-0.1333,-0.1333,-0.1332,0,-0.2398,-0.2328,-0.2297,-0.2179,-0.2121,-0.2061,-0.1964,-0.1915,-0.1863,-0.1795,-0.1709,-0.1615,-0.1514,-0.1487,-0.1435,-0.1385,-0.1378,-0.1346,-0.1318,-0.1331,-0.1323,-0.1319,-0.1339,-0.1338,-0.1337,-0.1336,0,0,-0.246,-0.2296,-0.2286,-0.2231,-0.2109,-0.2052,-0.1988,-0.1892,-0.1852,-0.1767,-0.171,-0.1598,-0.1568,-0.1507,-0.1445,-0.141,-0.1403,-0.1381,-0.1377,-0.1389,-0.1341,-0.1367,-0.1365,-0.1369,-0.1369,-0.1368,-0.135,0,-0.2452,-0.2335,-0.2256,-0.217,-0.2103,-0.2023,-0.1967,-0.1885,-0.182,-0.1752,-0.1679,-0.1602,-0.1567,-0.153,-0.1492,-0.1412,-0.1392,-0.1412,-0.1314,-0.1312,-0.1343,-0.1361,-0.1387,-0.1375,-0.1346,-0.1346,-0.1345,0,-0.2427,-0.2347,-0.2255,-0.214,-0.2109,-0.2061,-0.1966,-0.1903,-0.1808,-0.1763,-0.1696,-0.1634,-0.1561,-0.1541,-0.1439,-0.1455,-0.141,-0.1365,-0.1362,-0.1349,-0.1329,-0.1348,-0.1369,-0.1367,-0.1339,-0.1339,-0.134,0,-0.2481,-0.235,-0.2278,-0.2234,-0.2098,-0.2066,-0.2008,-0.1913,-0.186,-0.1777,-0.1742,-0.1651,-0.1601,-0.1531,-0.1445,-0.1439,-0.1352,-0.1325,-0.1311,-0.1314,-0.1296,-0.1299,-0.131,-0.1268,-0.1268,-0.1268,-0.1268,0,-0.2481,-0.2428,-0.2301,-0.2257,-0.2195,-0.2103,-0.2043,-0.1978,-0.1894,-0.1835,-0.1759,-0.1705,-0.1595,-0.1527,-0.1459,-0.1385,-0.1362,-0.1323,-0.1306,-0.133,-0.1335,-0.1298,-0.1297,-0.1268,-0.1268,-0.1268,-0.1268,0,-0.2531,-0.2445,-0.2361,-0.224,-0.2208,-0.2168,-0.2063,-0.2016,-0.1947,-0.1873,-0.185,-0.1741,-0.1657,-0.1565,-0.1449,-0.1403,-0.1333,-0.1308,-0.1366,-0.1356,-0.1348,-0.135,-0.1336,-0.1329,-0.1293,-0.1294,-0.1294,0,-0.2537,-0.2494,-0.2369,-0.2325,-0.2269,-0.2199,-0.2145,-0.2053,-0.2,-0.1889,-0.1855,-0.1766,-0.1689,-0.1558,-0.1467,-0.1378,-0.135,-0.1352,-0.1336,-0.1362,-0.135,-0.1354,-0.1349,-0.1356,-0.1357,-0.1358,-0.1359,0,-0.2555,-0.2515,-0.2442,-0.2354,-0.2293,-0.2218,-0.214,-0.2108,-0.2,-0.1944,-0.1858,-0.1799,-0.1682,-0.1593,-0.1493,-0.1431,-0.1376,-0.1364,-0.1356,-0.138,-0.1416,-0.1397,-0.1378,-0.1365,-0.1364,-0.1364,-0.1363,-0.1363,-0.2583,-0.2542,-0.2448,-0.2369,-0.2301,-0.2231,-0.2181,-0.2107,-0.2034,-0.1933,-0.1882,-0.1796,-0.1701,-0.1562,-0.1501,-0.1431,-0.1414,-0.1403,-0.14,-0.1399,-0.1405,-0.1428,-0.1413,-0.1412,-0.1412,-0.1412,-0.1412,0,-0.2598,-0.2534,-0.2462,-0.2357,-0.2295,-0.2251,-0.2163,-0.2113,-0.204,-0.1957,-0.1883,-0.1784,-0.1698,-0.1602,-0.1509,-0.1472,-0.1445,-0.1451,-0.1452,-0.1439,-0.1426,-0.1442,-0.1475,-0.1475,-0.1475,-0.1475,-0.1475,-0.1475,-0.2598,-0.2526,-0.2475,-0.2368,-0.2303,-0.2221,-0.2174,-0.2108,-0.2042,-0.1935,-0.1864,-0.1802,-0.1713,-0.1614,-0.1533,-0.1506,-0.1475,-0.1489,-0.1455,-0.1445,-0.144,-0.1435,-0.1449,-0.1483,-0.1483,-0.1474,-0.1474,-0.1474]}]]